[[{"header":{"parameterUnit":"m.s-1","parameterCategory":1,"la1":30.2991,"la2":30.254,"lo1":-89.0895,"lo2":-89.0444,"dy":0.0017,"dx":0.0017,"nx":28,"ny":28,"refTime":"2023-03-16T21:00:00:Z","depth":0,"parameterNumber":2,"parameterNumberName":"U-component_of_WINDS"},"data":[0,0,0,0,0,0,0,0,0,0,0,0,0,0,0,0,0,0,0,0,0,0,0,0,0,0,0,0,0,0,0,0,0,0,0,0,0,0,0,0,0,0,0,0,0,0,0,0,0,0,0,0,0,0,0,0,0,0,0.9639,0.9637,0,0.9539,0.9538,0.9537,0.9505,0.9505,0.9506,0.9506,0.9401,0.9398,0.9395,0,0,0,0,0,0,0,0,0,0,0,0,0,0.98,0.9797,0.9639,0.9637,0.9636,0.9539,0.9538,0.9537,0.9505,0.9505,0.9506,0.9507,0.9402,0.9399,0.9395,0,0,0,0,0,0,0,0,0,0,0,0,0,0.9718,0.9796,0.9639,0.9609,0.9605,0.954,0.9538,0.9536,0.9505,0.9505,0.9506,0.9507,0.9404,0.9399,0.9394,0.935,0,0,0.9379,0.9377,0,0,0,0,0,0,0,0,0.9722,0.9712,0.9614,0.9611,0.9606,0.9535,0.9556,0.9474,0.9505,0.9543,0.9506,0.9507,0.9445,0.9437,0.9417,0.9345,0.9341,0.9379,0.9376,0.9374,0.9373,0,0,0,0,0,0,0,0.9728,0.9716,0.9599,0.9613,0.9608,0.96,0.9589,0.954,0.9491,0.9539,0.9537,0.9526,0.9443,0.9421,0.9414,0.9339,0.9379,0.9375,0.9372,0.937,0.9229,0.9228,0,0,0,0,0,0,0.9739,0.9721,0.9602,0.9596,0.9667,0.9596,0.9584,0.9557,0.9492,0.9482,0.9525,0.9525,0.9429,0.942,0.941,0.9355,0.9374,0.9369,0.9367,0.923,0.9229,0.9228,0,0,0,0,0,0,0.9743,0.9729,0.9606,0.9658,0.9642,0.9593,0.9563,0.9555,0.9533,0.9481,0.9472,0.9512,0.9429,0.9417,0.9366,0.9351,0.9367,0.9363,0.9231,0.9229,0.9228,0.9244,0,0,0,0,0,0,0.9748,0.973,0.9713,0.9658,0.9639,0.9564,0.9562,0.9553,0.9525,0.9524,0.9466,0.9457,0.9429,0.9373,0.9361,0.9345,0.9359,0.9232,0.923,0.9229,0.9245,0.9244,0.9243,0,0,0,0,0,0.9753,0.9721,0.9713,0.9699,0.9617,0.9563,0.9553,0.9522,0.9524,0.9507,0.9473,0.9459,0.9355,0.9368,0.9354,0.9336,0.9233,0.9231,0.9229,0.9245,0.9244,0.9243,0,0,0,0,0,0,0.9774,0.9713,0.9703,0.9652,0.9614,0.9558,0.9535,0.9521,0.948,0.948,0.9442,0.9429,0.9381,0.9354,0.937,0.9291,0.9293,0.9288,0.9311,0.9309,0.9308,0.9315,0.9355,0,0,0,0,0,0.9774,0.9736,0.9684,0.9644,0.9625,0.9584,0.9559,0.9539,0.9497,0.948,0.9443,0.9402,0.936,0.9333,0.9292,0.9241,0.9229,0.9222,0.9221,0.9221,0.9216,0.9189,0.9185,0.9221,0.9222,0.9222,0,0,0.977,0.9732,0.971,0.9647,0.9615,0.9576,0.957,0.9529,0.95,0.9473,0.9423,0.9395,0.9347,0.9297,0.9273,0.9272,0.9204,0.9218,0.9218,0.9214,0.9186,0.9183,0.918,0.922,0.922,0.9221,0,0,0.9745,0.9713,0.9676,0.9644,0.9596,0.9569,0.9561,0.9508,0.9488,0.9438,0.9418,0.9383,0.9311,0.9278,0.9252,0.9217,0.9203,0.9205,0.9199,0.9172,0.9169,0.9166,0.9154,0.915,0.9201,0.9201,0.9201,0,0.9746,0.9688,0.9658,0.9619,0.9592,0.9568,0.9531,0.9501,0.9442,0.9423,0.9424,0.9335,0.9301,0.9243,0.9235,0.9215,0.9204,0.921,0.9172,0.9169,0.9166,0.9154,0.9149,0.9202,0.9202,0.9202,0.9201,0,0.9693,0.9653,0.9629,0.9574,0.9545,0.9506,0.947,0.9444,0.9427,0.94,0.935,0.9309,0.9259,0.9244,0.9226,0.9184,0.9185,0.918,0.9181,0.9164,0.9151,0.9146,0.9202,0.9202,0.9202,0.9202,0,0,0.9675,0.9606,0.9598,0.9573,0.952,0.9488,0.9449,0.9402,0.938,0.9341,0.9307,0.9249,0.9244,0.9214,0.9193,0.917,0.9145,0.9167,0.9166,0.9164,0.9097,0.91,0.9095,0.9136,0.9135,0.9135,0.9101,0,0.9643,0.9573,0.9546,0.9489,0.9452,0.9431,0.9397,0.936,0.9335,0.9299,0.9271,0.923,0.9227,0.9209,0.9185,0.9154,0.9131,0.9156,0.9104,0.9103,0.9116,0.9089,0.9092,0.9062,0.9096,0.9095,0.9094,0,0.9594,0.9556,0.9496,0.9449,0.9432,0.9402,0.9358,0.9325,0.9283,0.9266,0.9235,0.9216,0.9174,0.918,0.9122,0.914,0.9118,0.9099,0.9097,0.909,0.9096,0.908,0.9051,0.9047,0.9086,0.9087,0.9087,0,0.9587,0.9521,0.9477,0.9456,0.94,0.9379,0.9355,0.9314,0.9288,0.9249,0.9232,0.9189,0.9165,0.9132,0.9101,0.9108,0.9047,0.9049,0.9031,0.9032,0.9018,0.9019,0.8984,0.9005,0.9005,0.9005,0.9006,0,0.9553,0.9517,0.9473,0.9445,0.9405,0.9375,0.9335,0.9309,0.9274,0.9241,0.9219,0.9189,0.9151,0.9116,0.9092,0.9049,0.9038,0.9023,0.9017,0.9024,0.9026,0.9008,0.9009,0.9004,0.9004,0.9005,0.9005,0,0.9537,0.9506,0.9457,0.9408,0.9395,0.9368,0.9326,0.9299,0.9273,0.9232,0.9221,0.918,0.9138,0.9105,0.905,0.9034,0.8988,0.8981,0.9002,0.8999,0.8982,0.8984,0.8933,0.8925,0.8953,0.8953,0.8953,0,0.9516,0.9488,0.9438,0.9415,0.9391,0.9354,0.9328,0.9298,0.9272,0.9224,0.9202,0.9159,0.9123,0.9056,0.9022,0.8979,0.8972,0.8957,0.8965,0.8974,0.8971,0.8973,0.897,0.8955,0.8955,0.8955,0.8955,0,0.9483,0.947,0.9433,0.9392,0.9363,0.9328,0.9294,0.9276,0.924,0.9211,0.9169,0.9141,0.9085,0.9042,0.8997,0.8972,0.8957,0.8953,0.8947,0.8953,0.8966,0.8959,0.8999,0.8954,0.8954,0.8954,0.8954,0.8954,0.9463,0.9438,0.9399,0.936,0.9331,0.93,0.9273,0.9245,0.9209,0.9162,0.9147,0.9103,0.9064,0.9002,0.8976,0.8941,0.8941,0.8931,0.8928,0.8926,0.8927,0.8973,0.8933,0.8933,0.8933,0.8933,0.8933,0,0.9429,0.9403,0.9368,0.9321,0.929,0.9282,0.9243,0.9218,0.918,0.9145,0.9111,0.9062,0.9022,0.8985,0.8942,0.8922,0.8914,0.8911,0.8912,0.8906,0.893,0.894,0.8918,0.8918,0.8918,0.8918,0.8918,0.8918,0.9407,0.9364,0.9346,0.9289,0.9264,0.9222,0.9201,0.9172,0.9144,0.9092,0.9058,0.9035,0.9,0.8955,0.8917,0.8908,0.8893,0.8892,0.888,0.8903,0.8905,0.8906,0.8915,0.8889,0.8889,0.8859,0.8859,0.8859]},{"header":{"parameterUnit":"m.s-1","parameterCategory":1,"la1":30.2991,"la2":30.254,"lo1":-89.0895,"lo2":-89.0444,"dy":0.0017,"dx":0.0017,"nx":28,"ny":28,"refTime":"2023-03-16T21:00:00:Z","depth":0,"parameterNumber":3,"parameterNumberName":"V-component_of_WINDS"},"data":[0,0,0,0,0,0,0,0,0,0,0,0,0,0,0,0,0,0,0,0,0,0,0,0,0,0,0,0,0,0,0,0,0,0,0,0,0,0,0,0,0,0,0,0,0,0,0,0,0,0,0,0,0,0,0,0,0,0,-6.5257,-6.5259,0,-6.5396,-6.5398,-6.5399,-6.5359,-6.5356,-6.5354,-6.5351,-6.5487,-6.5493,-6.5499,0,0,0,0,0,0,0,0,0,0,0,0,0,-6.4952,-6.4958,-6.5257,-6.5259,-6.5261,-6.5396,-6.5398,-6.54,-6.536,-6.5356,-6.5353,-6.535,-6.5485,-6.5492,-6.55,0,0,0,0,0,0,0,0,0,0,0,0,0,-6.5087,-6.496,-6.5257,-6.5257,-6.5258,-6.5396,-6.5398,-6.54,-6.536,-6.5356,-6.5352,-6.5348,-6.5483,-6.5492,-6.5501,-6.5645,0,0,-6.553,-6.5534,0,0,0,0,0,0,0,0,-6.5079,-6.5098,-6.5255,-6.5257,-6.5259,-6.5356,-6.534,-6.5482,-6.5362,-6.5322,-6.5351,-6.5346,-6.5447,-6.5459,-6.5494,-6.5651,-6.5657,-6.5531,-6.5536,-6.554,-6.5543,0,0,0,0,0,0,0,-6.507,-6.5092,-6.5312,-6.5258,-6.526,-6.5249,-6.5263,-6.5367,-6.5406,-6.5325,-6.5322,-6.534,-6.5447,-6.5485,-6.5497,-6.5659,-6.553,-6.5539,-6.5545,-6.5548,-6.5942,-6.5946,0,0,0,0,0,0,-6.506,-6.5084,-6.5307,-6.5316,-6.5157,-6.5258,-6.5274,-6.5329,-6.5405,-6.5412,-6.5343,-6.5337,-6.5471,-6.5486,-6.5501,-6.5676,-6.554,-6.5549,-6.5555,-6.5937,-6.5943,-6.5948,0,0,0,0,0,0,-6.5054,-6.508,-6.5302,-6.52,-6.5227,-6.5268,-6.533,-6.5334,-6.5372,-6.5419,-6.5425,-6.5375,-6.5468,-6.5488,-6.561,-6.568,-6.5553,-6.5562,-6.5931,-6.5939,-6.5945,-6.6024,0,0,0,0,0,0,-6.5045,-6.5078,-6.5134,-6.5201,-6.5233,-6.541,-6.5334,-6.534,-6.539,-6.5383,-6.5451,-6.5458,-6.5466,-6.5596,-6.5619,-6.569,-6.5569,-6.5925,-6.5935,-6.5943,-6.6016,-6.6033,-6.6048,0,0,0,0,0,-6.5034,-6.5149,-6.5137,-6.5164,-6.5304,-6.5414,-6.5432,-6.5441,-6.5395,-6.5451,-6.5481,-6.5456,-6.5669,-6.5609,-6.5635,-6.571,-6.5921,-6.5932,-6.5942,-6.6008,-6.603,-6.6048,0,0,0,0,0,0,-6.5086,-6.5158,-6.5145,-6.5286,-6.5345,-6.5407,-6.5478,-6.5463,-6.5534,-6.5525,-6.5532,-6.5548,-6.5673,-6.5703,-6.5636,-6.5853,-6.5788,-6.5804,-6.5829,-6.585,-6.5866,-6.5856,-6.5577,0,0,0,0,0,-6.5115,-6.52,-6.5257,-6.5375,-6.5405,-6.5437,-6.5485,-6.5488,-6.5548,-6.5572,-6.561,-6.5668,-6.5748,-6.58,-6.5876,-6.602,-6.6034,-6.6084,-6.61,-6.6114,-6.6128,-6.6207,-6.623,-6.5983,-6.5983,-6.5983,0,0,-6.5173,-6.5222,-6.5275,-6.5387,-6.5432,-6.552,-6.5458,-6.5552,-6.5616,-6.5585,-6.5704,-6.5734,-6.5799,-6.5933,-6.5993,-6.5962,-6.6199,-6.6127,-6.6138,-6.6145,-6.622,-6.6244,-6.6264,-6.5991,-6.5989,-6.5988,0,0,-6.5323,-6.537,-6.5474,-6.5522,-6.5593,-6.5614,-6.5639,-6.5705,-6.5725,-6.5844,-6.5824,-6.5899,-6.6036,-6.6084,-6.6126,-6.6298,-6.6277,-6.6322,-6.6408,-6.6485,-6.6504,-6.6522,-6.6583,-6.6605,-6.6336,-6.6336,-6.6337,0,-6.5386,-6.5518,-6.5529,-6.5626,-6.5676,-6.5655,-6.576,-6.5805,-6.5897,-6.5931,-6.5895,-6.6069,-6.6111,-6.6256,-6.6298,-6.6333,-6.6361,-6.6314,-6.6501,-6.6518,-6.6535,-6.6594,-6.6617,-6.6341,-6.6341,-6.634,-6.634,0,-6.5592,-6.5684,-6.576,-6.5852,-6.591,-6.6011,-6.6036,-6.6093,-6.6091,-6.6115,-6.6237,-6.6288,-6.6374,-6.6409,-6.6406,-6.6554,-6.6533,-6.6499,-6.6433,-6.6563,-6.6619,-6.6641,-6.6349,-6.6347,-6.6345,-6.6344,0,0,-6.5778,-6.5877,-6.5905,-6.5947,-6.6025,-6.6096,-6.6195,-6.6283,-6.6332,-6.6396,-6.648,-6.6598,-6.6568,-6.6616,-6.6619,-6.6687,-6.6821,-6.6645,-6.6646,-6.6676,-6.6987,-6.7013,-6.7039,-6.6808,-6.6812,-6.6815,-6.6982,0,-6.5936,-6.6115,-6.6128,-6.6288,-6.6373,-6.6356,-6.6442,-6.6499,-6.6525,-6.6599,-6.6626,-6.6711,-6.6664,-6.6693,-6.676,-6.679,-6.6883,-6.6778,-6.6884,-6.6888,-6.6869,-6.7068,-6.7094,-6.725,-6.7004,-6.7008,-6.701,0,-6.6144,-6.6218,-6.6388,-6.6456,-6.6492,-6.657,-6.6652,-6.6724,-6.6788,-6.6802,-6.6857,-6.6852,-6.6953,-6.6884,-6.7024,-6.6952,-6.6996,-6.7018,-6.7024,-6.7034,-6.6957,-6.7084,-6.7299,-6.7323,-6.7044,-6.7042,-6.7039,0,-6.6264,-6.6405,-6.6526,-6.6562,-6.6644,-6.67,-6.6736,-6.6796,-6.6849,-6.692,-6.6954,-6.7035,-6.7079,-6.7141,-6.7157,-6.7105,-6.7297,-6.7229,-6.731,-6.731,-6.7351,-6.7348,-6.7577,-6.7379,-6.7379,-6.7379,-6.7378,0,-6.6439,-6.6544,-6.6581,-6.6655,-6.6771,-6.6786,-6.69,-6.6932,-6.6987,-6.7066,-6.7054,-6.7128,-6.7145,-6.7222,-6.7235,-6.7349,-6.7368,-6.7382,-6.7384,-6.7383,-6.7382,-6.7412,-6.7402,-6.7385,-6.7383,-6.7382,-6.7381,0,-6.6592,-6.6622,-6.6752,-6.682,-6.684,-6.6923,-6.698,-6.7051,-6.7076,-6.7176,-6.72,-6.7239,-6.7329,-6.7352,-6.7458,-6.7467,-6.7602,-6.7593,-6.7581,-6.7581,-6.7661,-6.7654,-6.7918,-6.7953,-6.7732,-6.7734,-6.7736,0,-6.6702,-6.6783,-6.6861,-6.6915,-6.6955,-6.704,-6.7095,-6.7112,-6.7168,-6.7249,-6.731,-6.7399,-6.7472,-6.7617,-6.7653,-6.7735,-6.7728,-6.7815,-6.774,-6.7738,-6.773,-6.7726,-6.7734,-6.7829,-6.7832,-6.7834,-6.7835,0,-6.6895,-6.6906,-6.6986,-6.7072,-6.7138,-6.7206,-6.727,-6.7314,-6.734,-6.7404,-6.7498,-6.7555,-6.7666,-6.7755,-6.7838,-6.7873,-6.7859,-6.7859,-6.7882,-6.7882,-6.7872,-6.788,-6.7621,-6.7853,-6.7851,-6.785,-6.7849,-6.7848,-6.703,-6.7102,-6.7169,-6.7259,-6.731,-6.7371,-6.7442,-6.7477,-6.7556,-6.765,-6.7654,-6.7757,-6.7819,-6.793,-6.797,-6.8049,-6.8023,-6.8056,-6.8065,-6.8073,-6.808,-6.786,-6.8064,-6.8064,-6.8063,-6.8063,-6.8063,0,-6.7223,-6.7266,-6.7349,-6.7441,-6.7512,-6.7495,-6.7566,-6.7626,-6.7717,-6.7778,-6.7851,-6.7959,-6.8046,-6.809,-6.8176,-6.8231,-6.8226,-6.8253,-6.8249,-6.8257,-6.8099,-6.8071,-6.8255,-6.8255,-6.8255,-6.8255,-6.8255,-6.8255,-6.7332,-6.7452,-6.7472,-6.7618,-6.7659,-6.7761,-6.7804,-6.786,-6.7909,-6.8032,-6.8105,-6.8134,-6.8188,-6.8278,-6.8357,-6.8367,-6.84,-6.843,-6.8437,-6.8288,-6.8268,-6.825,-6.8223,-6.8437,-6.8437,-6.8589,-6.859,-6.8591]}]]